Flag for Canada Weather past 2 weeks in Pickering, Ontario, Canada

59 °F

Mostly cloudy.

Feels Like: 57 °F
Forecast: 33 / 53 °F
Wind: 12 mph from Southwest

Location: Toronto Buttonville

Current Time: Nov 27, 2015 at 2:17:14 AM

Latest Report: Nov 27, 2015 at 1:00 AM

Visibility: 15 mi

Pressure: 30.28 "Hg

Humidity: 55%

Dew point: 43 °F

Location of PickeringLocation

Historic Weather in Pickering — Graph


Pickering temperature yesterday

Maximum temperature yesterday: 57 °F (at 8:00 PM)
Minimum temperature yesterday: 41 °F (at 12:00 AM)
Average temperature yesterday: 50 °F

Past Weeks' High & Low Weather Summary

High59 °F (Nov 15, 3:00 PM)100% (Nov 12, 2:00 AM)30.61 "Hg (Nov 12, 2:00 AM)
Low19 °F (Nov 23, 7:00 AM)37% (Nov 17, 2:00 PM)29.30 "Hg (Nov 12, 1:00 PM)
Average41 °F74%30.09 "Hg
* Reported Nov 12 1:00 AM — Nov 27 1:00 AM, Pickering, Weather by CustomWeather, © 2015

Note: Actual official high and low records may vary slightly from our data, if they occured in-between our weather recording intervals... More about our weather records


Pickering weather history for previous 24 hours

Time TempWeatherWind HumidityBarometerVisibility
1:00 AM
Fri, Nov 27
59 °FMostly cloudy.12 mph55%30.28 "Hg15 mi
12:00 AM57 °FOvercast.10 mph59%30.29 "Hg15 mi
11:00 PM
Thu, Nov 26
55 °FOvercast.13 mph63%30.30 "Hg15 mi
10:00 PM55 °FMostly cloudy.16 mph63%30.31 "Hg15 mi
9:00 PM57 °FPartly cloudy.16 mph63%30.32 "Hg15 mi
8:00 PM57 °FPassing clouds.14 mph59%30.33 "Hg15 mi
7:00 PM55 °FPassing clouds.10 mph59%30.34 "Hg15 mi
6:00 PM55 °FPassing clouds.12 mph59%30.37 "Hg15 mi
5:00 PM55 °FPartly cloudy.13 mph59%30.37 "Hg15 mi
4:00 PM55 °FBroken clouds.12 mph59%30.39 "Hg15 mi
3:00 PM55 °FMostly cloudy.12 mph59%30.38 "Hg15 mi
2:00 PM55 °FScattered showers. Broken clouds.12 mph55%30.39 "Hg15 mi
1:00 PM54 °FSprinkles. Mostly cloudy.13 mph54%30.42 "Hg14 mi
12:00 PM52 °FMostly cloudy.9 mph58%30.45 "Hg15 mi
11:00 AM52 °FCloudy.10 mph58%30.47 "Hg15 mi
10:00 AM50 °FSprinkles. Cloudy.12 mph58%30.49 "Hg14 mi
9:00 AM48 °FSprinkles. Cloudy.9 mph62%30.48 "Hg14 mi
8:00 AM48 °FScattered showers. Mostly cloudy.10 mph62%30.47 "Hg15 mi
7:00 AM46 °FOvercast.8 mph66%30.47 "Hg12 mi
6:00 AM46 °FOvercast.7 mph62%30.46 "Hg10 mi
5:00 AM45 °FOvercast.8 mph66%30.45 "Hg10 mi
4:00 AM43 °FOvercast.6 mph71%30.46 "Hg10 mi
3:00 AM41 °FHigh level clouds.8 mph76%30.46 "Hg10 mi
2:00 AM41 °FPassing clouds.6 mph76%30.47 "Hg12 mi
Weather by CustomWeather, © 2015

See weather overviewHow to use our weather pages